Location: Home
(42.5358°N, 72.7383°W)
Time: 21:03:19
(UTC-05:00)

Vanguard 2 Rocket - Pass Details

Date: 06 December 2021
Orbit: 554 x 3325 km, 32.9° (Epoch: 21 January)

Event Time Altitude Azimuth Distance (km) Brightness Sun altitude
Rises 23:38:56 0° 266° (W) 5,018 - -70.1°
Reaches altitude 10° 23:43:17 10° 249° (WSW) 4,489 - -70.1°
Maximum altitude 23:51:18 19° 211° (SSW) 4,508 - -70.0°
Drops below altitude 10° 00:01:38 10° 174° (S) 5,902 - -69.7°
Sets 00:08:58 0° 160° (SSE) 7,203 - -69.3°
